Regional Weather Roundup
Issued by NWS

Home | Current Version | Previous Version | Graphics & Text | Print | Product List | Glossary On
Versions: 1 2 3 4 5 6 7 8 9 10 11 12 13 14 15 16 17 18 19 20 21 22 23 24 25 26 27 28 29 30 31 32 33 34 35 36 37 38 39 40 41 42 43 44 45 46 47 48 49 50
000
ASUS45 KABQ 270901
RWRNM
NEW MEXICO REGIONAL WEATHER ROUNDUP
NATIONAL WEATHER SERVICE ALBUQUERQUE NM
300 AM MDT THU APR 27 2017

NOTE: "FAIR" MEANS FEW OR NO CLOUDS BELOW 12,000 FEET AGL WITH NO
       SIGNIFICANT WEATHER OR OBSTRUCTIONS TO VISION.

      THIS PRODUCT IS RELEASED AS TWO VERSIONS.  ONE VERSION NEAR
      THE TOP OF THE HOUR CONTAINING PRELIMINARY DATA FROM ALBUQUERQUE
      AND OTHER STATIONS.  A FINAL VERSION WITH ADDITIONAL DATA IS
      ISSUED ABOUT 10 MINUTES AFTER THE HOUR.

NMZ501-503-504-510>518-271000-
NORTHWEST PLATEAU/NORTHCENTRAL MOUNTAINS

CITY           SKY/WX    TMP DP  RH WIND       PRES   REMARKS
FARMINGTON     LGT RAIN  46  39  76 NW6       29.75R
LOS ALAMOS     FAIR      47  28  46 SW5       29.77F
SANTA FE       CLOUDY    42  25  50 E3        29.74F
TAOS             N/A     39  21  48 SE8       29.74F WCI  34
ANGEL FIRE     FAIR      38  20  49 SW7       29.77F WCI  32

$$
NMZ402-403-502-505>509-271000-
WESTCENTRAL MOUNTAINS/SOUTHWEST MOUNTAINS

CITY           SKY/WX    TMP DP  RH WIND       PRES   REMARKS
GALLUP         CLOUDY    51  23  33 SW22G31   29.78F
GRANTS         FAIR      52  21  30 W22G35    29.79F
SILVER CITY    FAIR      54  22  28 NW13      29.86F

$$
NMZ407-409-411-412-271000-
SOUTHERN DESERTS

CITY           SKY/WX    TMP DP  RH WIND       PRES   REMARKS
DEMING         FAIR      55  23  28 CALM      29.82S
LAS CRUCES     FAIR      62  20  20 W15       29.82S
HOLLOMAN AFB   FAIR      61  19  19 SE6       29.80R
ALAMOGORDO     FAIR      57  21  24 S6        29.78S
T OR C         FAIR      56  20  24 S6        29.77F

$$
NMZ519>523-271000-
CENTRAL VALLEYS/CENTRAL HIGHLANDS

CITY           SKY/WX    TMP DP  RH WIND       PRES   REMARKS
ALBUQUERQUE    FAIR      54  29  38 CALM      29.75F
MORIARTY ARPT  MOCLDY    47  29  50 W5        29.78F
CLINES CORNERS NOT AVBL
BELEN          FAIR      53  22  30 W8        29.75F
SOCORRO        FAIR      58  22  24 SW8       29.75F

$$
NMZ524>526-539-540-271000-
SOUTHCENTRAL MOUNTAINS

CITY           SKY/WX    TMP DP  RH WIND       PRES   REMARKS
RUIDOSO        NOT AVBL

$$
NMZ527>531-271000-
NORTHEAST HIGHLANDS/NORTHEAST PLAINS

CITY           SKY/WX    TMP DP  RH WIND       PRES   REMARKS
LAS VEGAS      FAIR      37  18  46 S10       29.74F WCI  30
RATON          FAIR      38  29  70 W12       29.70F WCI  30
CLAYTON        FAIR      40  33  76 SW8       29.69F WCI  34

$$
NMZ532>537-271000-
EASTCENTRAL PLAINS

CITY           SKY/WX    TMP DP  RH WIND       PRES   REMARKS
SANTA ROSA     FAIR      46  31  56 CALM      29.69F
TUCUMCARI      FAIR      48  42  80 NW8       29.64F
CANNON AFB     CLOUDY    50  35  56 SE10      29.72F
CLOVIS AIRPORT CLOUDY    48  34  57 E7        29.74R

$$
NMZ028-029-538-271000-
SOUTHEAST PLAINS

CITY           SKY/WX    TMP DP  RH WIND       PRES   REMARKS
ROSWELL        FAIR      46  26  45 SW6         N/A
ARTESIA        FAIR      50  25  37 S8        29.69F
CARLSBAD       FAIR      55  26  32 S8        29.68F
HOBBS          FAIR      50  30  46 S12       29.72F


$$




USA.gov is the U.S. government's official web portal to all federal, state and local government web resources and services.